Location: Sungai Bunut
(2.6333°N, 113.7333°E)
Time: 19:15:26
(UTC+00:00)

SL-08 R/B - Pass Details

Date: 16 October 2021
Orbit: 673 x 739 km, 98.5° (Epoch: 07 December)

Event Time Altitude Azimuth Distance (km) Brightness Sun altitude
Rises 20:05:26 0° 155° (SSE) 3,018 7.0 -31.3°
Reaches altitude 10° 20:07:45 10° 148° (SSE) 2,104 6.2 -30.7°
Maximum altitude 20:12:06 43° 77° (ENE) 953 4.3 -29.6°
Enters shadow 20:13:08 37° 43° (NE) 1,054 4.4 -29.4°
